星链-37067(STARLINK-37067)

导读

STARLINK-37067(NORAD编号68086)是美国SpaceX公司星链(Starlink)星座中的一颗低轨通信卫星,采用Starlink V1.0平台设计,归属SpaceX全球卫星互联网项目。 该卫星运行于近地轨道,近地点约570公里,远地点约574公里,轨道倾角70.003°,绕行周期约96.1分钟,可配合星链星座为全球提供高速低延迟互联网接入服务,重点服务偏远区域,并支持行业通信应用,是星链万颗星座规模部署中的组成单元。

基本信息
目录编号:
68086
目录名称:
STARLINK-37067
国际标识:
2026-042T
轨道中心:
EARTH
卫星名称:
星链-37067
卫星全名:
星链-37067(STARLINK-37067)
卫星状态:
在轨 (已飞行191 天)
发射日期:
2026-03-04 UTC
国别 :
美国 (US)
星等 :
--
该卫星已列入 空间交会检测服务 Space Conjunction Data Service (SCDS) ,当前飞行风险评估等级: 无高风险
轨道信息
数据来源 国际轨道数据
星历时间: 2026-09-11T21:42:52+0800
6小时前
查看轨道信息
半长轴: 6840.909km
偏心率: 0.0001391
轨道倾角: 53.161°
近地点辐角 143.277°
升交点赤经 29.665°
平近点角 216.833°
近地点: 461.82km
远地点: 463.724km
周期: 93.849分钟
每日圈数: 15.34377
详细信息
固有亮度:
5
最大亮度:
2.5
卫星平台:
Starlink V1.0
覆盖范围:
全球
运营商:
太空探索技术公司
运营商所在国:
美国
制造商(研发单位):
太空探索技术公司
制造商所在国:
美国
使用方式:
暂无
卫星简介
Starlink 计划是 SpaceX 推出的全球卫星互联网项目,通过发射低轨道卫星,为全球尤其是偏远地区提供高速、低延迟的互联网服务。自 2019 年起,Starlink 已部署数千颗卫星,旨在缩小全球数字鸿沟,推动互联网普及。该项目还为军事、航空等行业提供通信支持,带来广泛经济效益。
2D轨道图
3D轨道图
轨道高度分析图
轨道倾角分析图
轨道综合分析图
查看轨道综合分析图
交会数据列表
事件ID 空间交会对象 最接近时刻(TCA) 交会距离 交会风险概率(CRP) 交会风险指数(CRI) 操作
CDM_260914-050605-417606-808621
2026-09-14T
05:06:34+0000
0.888 km
远距离
3.491224E-5 中风险 0.66
CDM_260913-085906-170806-808621
2026-09-13T
08:59:03+0000
1.281 km
极远距离
7.066264E-6 低风险 0.52
CDM_260913-042305-422806-808623
2026-09-13T
04:23:31+0000
1.680 km
极远距离
4.105248E-6 低风险 0.47
CDM_260913-190806-170806-808621
2026-09-13T
19:08:41+0000
1.552 km
极远距离
3.777398E-6 低风险 0.47
CDM_260913-072506-170806-808621
2026-09-13T
07:25:15+0000
1.943 km
极远距离
1.991688E-6 低风险 0.41
CDM_260913-173406-170806-808621
2026-09-13T
17:34:54+0000
1.962 km
极远距离
1.946479E-6 低风险 0.41
CDM_260913-191605-084906-808621
2026-09-13T
19:16:45+0000
1.686 km
极远距离
1.442227E-6 低风险 0.38
CDM_260912-145305-286006-808621
2026-09-12T
14:53:15+0000
2.786 km
极远距离
1.249596E-6 低风险 0.37
CDM_260914-072405-179106-808621
2026-09-14T
07:24:30+0000
2.927 km
极远距离
1.233776E-6 低风险 0.37
CDM_260913-200305-084906-808621
2026-09-13T
20:03:38+0000
2.028 km
极远距离
9.16455E-7 极低风险 0.34
与全量物体交会距离演化趋势
与全量物体交会风险概率演化趋势